EET,Max TemperatureF,Mean TemperatureF,Min TemperatureF,Max Dew PointF,MeanDew PointF,Min DewpointF,Max Humidity, Mean Humidity, Min Humidity, Max Sea Level PressureIn, Mean Sea Level PressureIn, Min Sea Level PressureIn, Max VisibilityMiles, Mean VisibilityMiles, Min VisibilityMiles, Max Wind SpeedMPH, Mean Wind SpeedMPH, Max Gust SpeedMPH,PrecipitationIn, CloudCover, Events, WindDirDegrees
2012-10-1,98,76,55,41,33,27,51,26,8,30.12,30.07,30.04,6,6,6,8,4,,0.00,3,,347
2012-10-2,98,78,57,43,36,30,51,27,10,30.12,30.06,30.01,6,6,6,9,3,,0.00,5,,257
2012-10-3,95,78,62,50,43,36,52,31,13,30.04,29.99,29.92,6,6,4,16,5,,0.00,5,Rain-Thunderstorm,19
2012-10-4,93,76,60,50,45,37,63,37,14,29.92,29.85,29.77,6,6,6,16,6,,0.00,4,,219
2012-10-5,87,71,55,48,42,36,72,39,16,29.98,29.92,29.86,6,6,6,10,6,,0.00,2,,331
2012-10-6,86,70,53,45,41,36,72,39,18,30.06,30.02,29.98,6,6,6,12,5,,0.00,4,,288
2012-10-7,87,73,59,52,42,37,55,33,17,30.09,29.99,29.92,6,6,3,18,7,28,0.00,4,Rain-Thunderstorm,71
2012-10-8,89,78,66,54,42,32,56,33,13,29.95,29.86,29.77,6,5,2,18,9,,0.00,5,,179
2012-10-9,82,68,55,46,43,39,63,39,21,29.92,29.88,29.83,6,6,6,7,3,,0.00,4,,222
2012-10-10,71,65,59,59,53,43,94,67,45,30.04,29.98,29.92,6,6,5,20,8,34,0.00,6,Rain-Thunderstorm,50
2012-10-11,86,73,60,57,50,36,88,52,17,29.98,29.89,29.77,6,6,4,17,7,,0.00,6,Rain,73
2012-10-12,78,64,51,52,47,39,94,56,26,30.04,29.96,29.89,6,6,6,9,5,,0.00,2,,221
2012-10-13,80,64,48,48,44,37,87,55,23,30.12,30.06,30.04,6,6,6,6,3,,0.00,6,,22
2012-10-14,82,64,46,46,39,28,87,49,15,30.09,30.05,30.01,,,,6,3,,0.00,,,4
2012-10-15,82,63,44,39,36,27,81,43,13,30.15,30.09,30.06,,,,7,3,,0.00,,,340
2012-10-16,84,65,46,39,35,28,71,41,13,30.15,30.10,30.06,,,,7,3,,0.00,,,351
2012-10-17,86,66,46,41,35,28,76,40,12,30.09,30.04,29.98,,,,6,3,,0.00,,,351
2012-10-18,87,68,48,37,34,28,66,35,12,30.06,30.01,29.95,6,6,6,8,3,,0.00,1,,285
2012-10-19,86,67,48,37,34,28,62,35,13,30.09,30.03,29.98,6,6,6,9,3,,0.00,2,,26
2012-10-20,66,62,57,55,49,36,94,66,37,30.21,30.12,30.04,6,6,4,20,7,,0.00,5,Rain-Thunderstorm,65
2012-10-21,73,65,57,59,55,52,94,76,50,30.18,30.13,30.06,6,6,4,14,6,,0.00,5,Rain-Thunderstorm,47
2012-10-22,78,64,51,59,54,46,100,73,34,30.15,30.07,29.98,6,5,1,7,3,,0.00,5,Fog-Rain,280
2012-10-23,68,64,59,61,59,57,94,88,68,30.06,30.01,29.95,6,6,4,8,4,,0.00,6,Rain-Thunderstorm,10
2012-10-24,71,63,55,59,57,54,94,82,60,30.09,30.07,30.04,6,6,4,14,6,,0.00,6,Rain-Thunderstorm,28
2012-10-25,59,58,57,57,55,54,100,89,82,30.09,29.95,29.83,6,6,4,16,8,,0.00,6,Rain-Thunderstorm,27
2012-10-26,68,62,55,55,53,50,94,77,56,29.98,29.88,29.77,6,6,6,14,5,,0.00,6,Rain-Thunderstorm,255
2012-10-27,66,60,51,54,52,50,100,81,56,30.04,30.00,29.98,6,6,0,8,4,,0.00,4,Fog-Rain,223
2012-10-28,69,58,46,55,51,46,100,80,46,30.15,30.09,30.04,6,4,0,6,2,,0.00,2,Fog,256
2012-10-29,71,58,46,55,50,45,100,81,38,30.15,30.08,30.01,6,3,0,7,2,,0.00,3,Fog,310
2012-10-30,73,60,46,52,49,43,100,76,35,30.06,30.04,30.01,5,3,0,5,3,,0.00,2,Fog,357
2012-10-31,71,58,46,54,50,46,100,76,43,30.12,30.09,30.06,6,5,3,7,3,,0.00,6,Fog,349